彩虹 32星 (RADUGA 32)

导读 | 星芒AI

RADUGA 32 是一颗俄罗斯军用通信卫星,属于“彩虹”(Raduga)系列,主要用于军事通信和数据传输。该卫星由俄罗斯国家航天公司(Roscosmos)运营,具备高安全性和抗干扰能力,支持战略指挥与控制系统。其部署增强了俄罗斯在极端情况下的通信保障能力,是俄罗斯空间战略的重要组成部分。RADUGA 32 的发射和运行体现了俄罗斯在军事航天领域的持续发展和技术自主性。

基本信息
目录编号:
23448
目录名称:
RADUGA 32
国际标识:
1994-087A
轨道中心:
EARTH
卫星名称:
彩虹 32星
卫星全名:
彩虹 32星 (RADUGA 32)
卫星状态:
在轨 (已飞行11248 天)
发射日期:
1994-12-28 UTC
国别 :
俄罗斯(独联体) (CIS)
星等 :
--
轨道信息
数据来源 国际轨道数据 AOE轨道数据
星历时间 2025-10-14T01:11:40+0800
20小时前
查看轨道信息
2025-10-12T02:00:00+0800
2天前
查看轨道信息
半长轴 42161.196km 42161.196km
偏心率 0.0008944 0.0008818
轨道倾角 14.375° 14.375°
近地点辐角 249.210° 249.937°
升交点赤经 352.821° 352.837°
平近点角 113.133° 122.449°
近地点 35745.352km 35745.883km
远地点 35820.77km 35820.239km
周期 1435.916分钟 1435.916分钟
每日圈数 1.002844 1.002844
详细信息
平衡模式:
三轴稳定
覆盖范围:
全球
运营商:
俄罗斯国家航天集团
运营商所在国:
俄罗斯
制造商(研发单位):
普里克拉德诺伊·梅哈尼基设计局
制造商所在国:
俄罗斯联邦
使用方式:
暂无
卫星简介
彩虹卫星(Raduga, Gran)是苏联用于军事和通信目的的一系列地球静止通信卫星。彩虹卫星旨在支持军事通信、Orbita地面电视网络,并在整个东半球(极地地区除外)提供电话和电报通信。该卫星已退役。
2D轨道图
3D轨道图
轨道高度分析图
轨道倾角分析图
轨道综合分析图
查看轨道综合分析图